Location: Home
(42.5358°N, 72.7383°W)
Time: 16:55:31
(UTC-05:00)

Tiros 1 - Pass Details

Date: 30 November 2021
Orbit: 629 x 664 km, 48.4° (Epoch: 18 January)

Event Time Altitude Azimuth Distance (km) Brightness Sun altitude
Rises 22:00:52 0° 278° (W) 2,942 - -60.7°
Reaches altitude 10° 22:03:18 10° 285° (WNW) 2,039 - -61.1°
Maximum altitude 22:07:45 41° 356° (N) 948 - -61.7°
Drops below altitude 10° 22:12:15 10° 67° (ENE) 2,061 - -62.4°
Sets 22:14:43 0° 75° (ENE) 2,978 - -62.7°
